Location: Rooftop Observatory
(39.0308°N, 87.1711°W)
Time: 11:37:11
(UTC-05:00)

Terra - Visible Passes

Search period start: 20 April 2018 00:00
Search period end: 30 April 2018 00:00
Orbit: 702 x 703 km, 98.2° (Epoch: 20 April)

Date Brightness Start Highest point End Pass type
(mag) Time Alt. Az. Time Alt. Az. Time Alt. Az.
20 Apr 3.3 22:05:06 25° NE 22:05:06 25° NE 22:07:53 10° N visible
20 Apr 4.2 23:43:59 18° NW 23:43:59 18° NW 23:45:33 10° NW visible
21 Apr 3.1 22:48:18 36° N 22:48:18 36° N 22:51:09 10° N visible
22 Apr 3.5 21:52:36 21° NE 21:52:36 21° NE 21:55:21 10° NNE visible
22 Apr 3.9 23:31:29 24° NW 23:31:29 24° NW 23:33:38 10° NNW visible
23 Apr 2.9 22:35:47 38° NNE 22:35:47 38° NNE 22:38:54 10° N visible
24 Apr 3.7 21:40:06 17° ENE 21:40:06 17° ENE 21:42:42 10° NNE visible
24 Apr 3.5 23:18:59 30° NW 23:18:59 30° NW 23:21:37 10° NNW visible
25 Apr 2.9 22:23:18 36° NE 22:23:18 36° NE 22:26:36 10° N visible
26 Apr 4.4 00:02:10 14° WNW 00:02:10 14° WNW 00:03:17 10° NW visible
26 Apr 3.9 21:27:37 13° ENE 21:27:38 13° ENE 21:29:46 10° NE visible
26 Apr 3.1 23:06:29 39° NNW 23:06:29 39° NNW 23:09:32 10° NNW visible
27 Apr 3.0 22:10:48 31° NE 22:10:48 31° NE 22:14:13 10° N visible
27 Apr 4.1 23:49:41 19° WNW 23:49:41 19° WNW 23:51:35 10° NW visible
28 Apr 2.7 22:54:00 47° NNW 22:54:00 47° NNW 22:57:23 10° NNW visible
29 Apr 3.2 21:58:19 25° ENE 21:58:19 25° ENE 22:01:45 10° NNE visible
29 Apr 3.7 23:37:11 25° WNW 23:37:11 25° WNW 23:39:43 10° NNW visible
